CAPE
0 0 0 0 0 0 0 0 0 0 0 0 0 0 0 0 0 0 0 0 0 0
0 0 0 0 0 0 0 0 0 0 0 0 0 0 0 0 0 0 0 0 0 0
0 0 0 0 0 0 0 0 0 0 0 0 0 0 0 0 0 0 0 0 0 0
0 0 0 0 0 0 0 0 0 0 0 0 0 0 0 0 0 0 0 0 0 0
0 0 0 0 0 0 0 0 0 0 0 0 0 0 0 0 0 0 0 0 0 0
0 0 0 0 0 0 0 0 0 0 0 0 0 0 0 0 0 0 0 0 0 0
0 0 0 0 0 0 0 0 0 0 0 0 0 0 0 0 0 0 0 0 0 1
0 0 0 0 0 0 0 0 0 0 0 0 0 0 0 0 0 0 0 0 0 1
0 0 0 0 0 0 0 0 0 0 0 0 0 0 0 0 0 0 0 0 0 0
0 0 0 0 0 0 0 0 0 0 0 0 0 0 0 0 0 0 0 0 0 0
0 0 0 0 0 0 0 0 0 0 0 0 0 0 0 0 0 0 0 0 0 0
0 0 0 0 0 0 0 0 0 0 0 0 0 3 0 0 0 0 0 0 0 0
0 0 0 0 0 0 0 0 0 0 0 0 0 1 0 0 0 0 0 0 0 0
0 0 0 0 0 0 0 0 0 0 0 0 0 0 1 0 0 0 0 0 0 0
CIN
-0 -0 -0 -0 -0 -0 -0 -0 -0 -0 -0 -0 -0 -0 -0 -0 -0 -0 -0 -0 -0 -0
-0 -0 -0 -0 -0 -0 -0 -0 -0 -0 -0 -0 -0 -0 -0 -0 -0 -0 -0 -0 -0 -0
-0 -0 -0 -0 -0 -0 -0 -0 -0 -0 -0 -0 -0 -0 -0 -0 -0 -0 -0 -0 -0 -0
-0 -0 -0 -0 -0 -0 -0 -0 -0 -0 -0 -0 -0 -0 -0 -0 -0 -0 -0 -0 -0 -0
-0 -0 -0 -0 -0 -0 -0 -0 -0 -0 -0 -0 -0 -0 -0 -0 -0 -0 -0 -0 -0 -0
-0 -0 -0 -0 -0 -0 -0 -0 -0 -0 -0 -0 -0 -0 -0 -0 -0 -0 -0 -0 -0 -0
-0 -0 -0 -0 -0 -0 -0 -0 -0 -0 -0 -0 -0 -0 -0 -0 -0 -0 -0 -0 -0 -0
-0 -0 -0 -0 -0 -0 -0 -0 -0 -0 -0 -0 -0 -0 -0 -0 -0 -0 -0 -0 -0 -0
-0 -0 -0 -0 -0 -0 -0 -0 -0 -0 -0 -0 -0 -0 -0 -0 -0 -0 -0 -0 -0 -0
-0 -0 -0 -0 -0 -0 -0 -0 -0 -0 -0 -0 -0 -0 -0 -0 -0 -0 -0 -0 -0 -0
-0 -0 -0 -0 -0 -0 -0 -0 -0 -0 -0 -0 -0 -0 -0 -0 -0 -0 -0 -0 -0 -0
-0 -0 -0 -0 -0 -0 -0 -0 -0 -0 -0 -0 -0 -0 -0 -0 -0 -0 -0 -0 -0 -0
-0 -0 -0 -0 -0 -0 -0 -0 -0 -0 -0 -0 -0 -0 -0 -0 -0 -0 -0 -0 -0 -1
-0 -0 -0 -0 -0 -0 -0 -0 -0 -0 -0 -0 -0 -0 -0 -0 -0 -0 -0 -0 -0 -0
Wind_Speed
16 17 19 20 21 23 25 26 27 27 27 27 29 29 28 28 28 28 28 28 29 28
17 18 19 19 20 21 23 24 26 26 26 27 27 28 28 27 28 27 27 27 28 27
16 17 17 18 19 21 22 23 25 25 26 26 26 26 26 27 26 26 26 27 27 28
14 15 17 17 18 21 22 24 24 25 26 25 25 25 25 25 26 26 26 27 28 28
13 13 14 17 20 21 22 22 22 23 23 23 25 25 25 25 25 26 27 27 28 29
13 14 16 18 19 19 20 20 22 22 23 24 23 24 24 25 26 26 27 27 28 29
13 13 15 16 18 19 20 20 21 22 22 23 23 23 23 24 25 26 26 26 27 28
12 13 15 16 17 18 19 19 20 21 21 21 23 23 23 24 25 26 27 27 27 28
11 13 15 15 15 16 18 19 20 20 21 21 22 22 23 23 24 25 26 28 28 27
11 12 12 13 15 16 17 18 19 20 20 21 21 22 23 23 24 25 26 27 28 27
9 9 11 12 13 14 15 17 18 19 20 20 22 22 22 23 24 24 26 27 27 27
7 9 10 11 12 13 15 16 17 19 20 21 22 21 22 22 23 24 25 26 26 26
7 8 8 9 10 13 14 15 16 17 19 21 22 21 23 23 23 24 25 25 25 26
8 7 7 7 9 11 13 15 16 16 18 20 21 21 23 23 23 23 24 24 25 25
Wind_Direction
339 343 342 345 346 343 345 347 347 348 347 346 344 347 349 349 350 356 356 354 352 353
339 340 342 349 350 349 346 347 346 346 346 345 344 345 347 348 351 351 351 353 352 350
341 341 347 349 348 349 349 346 343 344 344 345 347 348 348 350 351 349 352 349 347 343
343 345 350 350 354 351 345 340 341 346 344 346 352 354 353 351 348 347 344 343 340 339
353 355 354 348 344 341 343 350 355 351 352 351 347 347 347 347 346 342 340 341 338 335
350 350 344 342 344 353 354 352 349 349 349 347 347 346 347 348 346 344 340 340 339 337
346 347 347 350 351 353 353 350 348 348 349 352 351 349 348 348 346 346 344 343 340 340
346 346 350 352 351 351 353 355 355 354 354 353 352 352 349 349 349 349 346 344 340 342
342 345 345 351 354 356 355 355 355 354 354 354 354 354 353 352 351 351 349 346 342 340
341 344 352 355 356 356 356 357 356 357 358 358 356 353 354 355 352 350 349 346 342 337
346 353 354 358 359 359 359 358 357 358 359 359 356 358 357 357 356 353 351 347 340 335
352 347 355 357 3 3 1 358 360 0 0 360 358 3 1 359 357 355 349 342 338 340
347 348 356 5 7 3 4 6 4 6 3 1 359 7 4 3 5 2 355 348 340 337
337 345 359 7 7 9 12 9 12 10 6 6 2 12 12 12 8 4 356 352 346 340